Location: Bacharowice
(49.9333°N, 19.5833°E)
Time: 05:36:00
(UTC+00:00)

Cosmos 1908 Rocket - Pass Details

Date: 03 October 2021
Orbit: 605 x 633 km, 82.5° (Epoch: 17 October)

Event Time Altitude Azimuth Distance (km) Brightness Sun altitude
Rises 17:20:23 0° 212° (SSW) 2,912 7.4 -11.3°
Reaches altitude 10° 17:22:47 10° 221° (SW) 2,007 6.6 -11.6°
Maximum altitude 17:26:53 35° 288° (WNW) 1,013 5.4 -12.3°
Drops below altitude 10° 17:30:59 10° 355° (N) 2,008 6.4 -12.9°
Sets 17:33:22 0° 4° (N) 2,914 7.1 -13.3°
